Theta_e
314 317 318 318 318 312 317 318 315 320 320 317 316 316 316 315 316 315 324 329 331 332 334 336 341 343 342 342 342 340 339 333 331 335 338 338 340 339 338 336 335 334 332 328 324 320 313 310 312
318 319 319 310 314 313 313 312 318 317 317 315 316 316 317 318 317 321 326 329 331 332 334 335 339 343 342 341 341 340 339 333 333 337 340 340 339 337 335 335 334 334 332 328 324 318 311 305 305
319 317 313 312 309 313 313 314 315 315 314 316 317 316 316 318 319 320 324 329 332 334 334 334 338 341 342 343 342 340 338 335 335 337 339 339 336 335 334 334 333 332 331 327 323 317 308 302 302
318 314 307 311 317 315 314 314 314 315 316 316 315 316 314 316 317 322 326 329 329 334 334 333 336 340 342 342 341 339 338 337 335 336 337 338 335 333 332 331 331 330 329 326 322 315 305 302 301
315 307 312 314 315 313 313 314 314 316 315 316 315 316 314 317 323 325 326 327 330 334 334 333 335 337 342 341 340 339 338 337 338 337 337 336 333 332 331 329 329 329 328 325 322 315 304 302 301
313 307 311 314 315 313 311 314 315 314 313 315 316 315 315 317 321 324 326 326 331 333 334 334 334 336 340 341 339 338 337 337 337 338 337 337 333 331 329 328 328 328 327 324 321 315 304 302 301
314 310 312 314 314 313 314 309 314 313 312 315 314 316 313 314 317 321 324 325 328 333 334 334 334 335 336 339 340 338 337 336 336 336 337 336 333 331 329 327 327 326 325 323 321 313 303 302 301
310 310 315 313 313 315 313 309 312 313 313 310 313 312 313 314 316 319 323 324 327 331 333 334 335 334 336 338 339 339 338 336 335 335 335 336 332 331 328 326 325 325 325 323 321 315 304 302 300
309 309 310 313 313 313 311 312 311 309 312 310 311 312 311 314 317 318 322 324 327 328 331 334 335 335 335 336 338 338 337 336 334 332 333 336 334 331 329 327 323 323 323 322 321 316 307 303 300
309 306 308 310 313 314 313 312 312 311 309 310 310 309 313 315 316 316 318 319 324 326 328 332 334 335 336 336 337 338 338 337 336 332 334 336 333 331 330 328 324 322 321 320 320 317 310 303 300
312 310 310 313 312 313 313 312 311 312 312 309 310 310 309 311 312 313 313 314 317 320 325 327 331 333 335 336 336 337 337 337 333 333 333 332 332 331 330 328 325 322 322 319 319 318 312 306 299
316 313 313 314 313 313 313 312 313 311 311 310 308 306 306 303 303 304 304 305 306 311 316 323 328 332 333 333 333 334 336 335 331 333 332 332 331 329 329 328 327 324 321 320 317 317 315 309 302
312 312 312 312 310 310 310 311 312 310 308 307 305 303 303 303 304 304 304 305 306 307 311 316 322 328 331 332 331 331 334 335 334 334 331 332 331 330 329 328 327 326 323 321 318 316 315 312 307
310 311 310 309 310 310 311 310 310 310 309 306 304 304 303 302 302 301 302 302 305 307 309 311 316 323 328 331 331 331 332 333 334 335 332 332 330 330 329 328 326 325 324 322 320 317 315 313 310
311 311 309 309 310 310 308 311 310 309 308 304 304 303 302 301 300 300 299 300 302 306 313 316 314 318 326 330 332 332 333 333 330 331 332 332 331 330 329 326 324 323 323 321 319 317 315 314 312
310 309 311 312 310 311 310 313 312 309 309 303 303 301 301 300 299 299 299 299 301 305 310 317 320 322 325 328 329 330 331 331 330 330 330 329 328 328 327 327 326 325 322 320 319 317 315 314 311
308 312 310 310 311 311 310 311 310 309 308 303 303 301 301 299 298 297 297 298 300 302 306 311 317 320 322 324 326 325 323 323 322 323 324 325 326 326 326 326 325 323 322 319 318 317 315 313 312
312 310 309 309 311 311 312 310 308 307 309 303 301 300 299 298 297 296 295 296 298 300 303 307 310 313 314 316 317 317 316 314 315 316 317 319 320 321 323 323 323 321 319 318 316 315 314 312 310
311 309 309 308 308 311 311 310 308 304 302 303 301 300 298 297 296 295 295 295 296 298 300 301 304 306 310 312 310 306 303 304 304 304 305 309 313 315 315 317 318 317 316 315 313 312 311 310 309
309 310 309 309 310 311 311 311 305 304 303 302 300 299 298 297 296 295 294 294 294 295 296 297 298 301 302 304 303 301 301 299 299 299 300 301 303 306 310 311 311 311 310 310 311 310 309 308 307
310 311 312 312 311 309 310 310 308 304 302 300 299 298 297 296 295 294 294 293 293 294 294 295 296 296 297 299 300 299 299 298 298 296 296 296 298 299 301 303 305 307 308 308 307 304 304 304 305
314 311 312 312 311 312 309 313 308 304 302 300 299 297 296 295 294 294 293 293 292 291 292 293 293 293 293 294 294 293 291 290 290 290 290 291 292 292 293 296 297 299 300 301 302 303 303 300 300
314 310 310 310 309 310 310 311 309 304 305 302 299 297 296 294 293 292 293 292 292 290 289 289 289 289 289 289 289 288 288 287 286 287 287 287 287 287 287 288 289 291 294 295 296 297 298 301 300
309 308 308 307 308 312 310 311 312 306 306 302 300 297 296 294 293 292 292 291 291 290 289 288 288 287 287 288 287 287 287 287 287 286 286 286 286 286 286 286 286 286 287 287 290 293 294 294 296
307 307 312 314 313 316 310 311 311 306 304 302 300 297 295 293 292 291 290 290 290 289 289 288 288 287 287 287 287 287 286 286 286 286 286 286 286 286 286 285 285 285 285 285 285 285 287 291 293
307 308 313 314 315 315 310 315 311 302 301 300 298 295 293 292 291 290 290 290 289 289 288 288 288 288 288 288 288 288 287 287 287 287 287 287 286 286 286 286 286 286 285 285 285 285 285 285 285
309 310 310 310 295 308 311 309 304 301 300 298 296 294 292 292 291 290 290 289 289 288 288 288 288 288 288 288 288 288 288 287 287 287 287 287 286 286 285 285 285 285 285 285 285 285 285 284 284
309 308 313 309 309 310 311 310 311 303 301 297 296 294 292 291 289 288 289 289 289 288 288 288 288 288 288 287 287 287 287 287 287 287 287 286 286 286 285 284 284 284 284 284 283 283 284 284 284
309 309 310 310 309 307 306 308 305 305 302 298 296 295 293 290 288 287 288 289 289 289 288 288 288 287 287 287 287 287 287 287 286 286 286 285 285 285 284 283 282 282 282 282 282 282 282 282 282
307 309 309 315 312 308 309 311 301 304 301 299 297 296 292 290 287 287 289 289 289 289 288 288 288 287 287 287 286 286 286 286 286 286 285 285 284 282 281 281 281 282 282 282 282 281 281 281 281
Wind_Speed
9 7 4 4 4 5 2 2 2 0 2 1 1 2 1 2 3 3 3 16 4 17 22 24 22 20 21 19 17 16 14 12 13 11 10 9 9 9 7 6 3 3 4 4 5 6 6 4 2
8 4 3 2 5 4 4 4 2 2 2 2 1 2 2 2 1 1 3 15 6 16 22 26 24 21 20 20 19 17 15 14 14 12 12 11 9 5 2 1 2 2 2 3 4 6 6 3 1
4 4 4 4 3 3 3 3 3 2 2 2 2 1 1 3 2 2 3 15 10 16 21 25 24 22 21 21 19 17 16 14 13 13 12 11 7 6 3 4 3 2 3 2 3 5 4 3 2
3 6 4 4 1 3 3 4 3 1 2 3 1 2 3 2 2 3 4 16 12 16 19 24 24 23 21 21 20 18 17 15 13 14 13 11 8 9 6 5 6 2 2 3 4 6 4 2 3
5 3 4 3 3 4 3 3 3 2 1 2 2 3 4 3 2 3 8 11 12 17 17 22 23 24 21 21 20 19 18 15 14 13 12 11 8 8 6 4 4 2 1 2 4 5 3 1 2
4 3 4 0 4 4 5 4 2 2 1 1 0 2 4 3 2 5 7 8 11 15 17 20 23 24 23 21 21 20 19 17 15 14 14 12 9 5 3 3 4 3 2 2 5 5 3 0 3
5 4 3 2 3 5 3 8 1 2 1 2 2 1 3 4 5 6 6 7 11 14 17 18 22 23 23 22 20 20 19 18 17 15 15 13 11 9 6 4 4 4 4 4 6 6 3 2 2
5 4 2 2 2 3 4 7 2 2 2 6 3 2 3 2 7 9 9 9 11 14 17 18 20 23 24 24 22 21 20 18 17 16 16 14 14 13 8 6 5 5 5 5 8 7 4 3 3
3 4 1 4 4 3 3 5 3 2 1 4 3 2 3 5 7 8 9 10 12 15 18 20 21 22 24 25 24 22 21 19 17 17 17 18 18 16 12 9 8 7 7 6 9 8 6 5 4
4 3 7 4 2 2 3 1 4 5 7 3 4 6 3 1 5 9 10 12 15 19 21 22 23 24 24 24 24 24 22 20 18 18 17 18 18 17 16 12 13 9 9 10 12 10 9 6 6
3 5 4 4 5 2 2 2 2 2 5 7 7 4 6 6 7 8 12 15 19 20 21 23 24 24 24 25 25 25 24 21 20 20 19 19 20 19 18 15 15 12 10 12 14 14 12 9 8
1 6 4 3 2 1 3 1 3 5 9 4 4 7 5 9 11 13 15 16 18 21 23 21 23 24 25 24 23 23 25 23 21 21 19 22 19 19 18 17 16 15 14 14 15 16 15 13 11
3 3 3 5 7 5 3 6 5 9 11 5 9 13 10 9 14 18 17 18 17 10 12 18 21 25 25 23 20 18 21 23 21 20 19 19 20 20 20 20 20 18 17 16 16 17 17 16 15
1 3 7 7 9 3 5 2 5 7 3 10 11 9 9 12 17 19 27 26 23 17 9 8 17 21 23 21 17 14 15 18 19 19 19 19 20 21 21 20 19 19 19 17 17 17 17 17 18
1 5 7 6 2 5 6 1 6 7 4 10 9 8 10 14 21 21 22 23 23 21 17 9 3 13 16 18 15 12 11 11 10 12 14 17 17 17 16 17 18 18 19 18 16 17 18 19 20
2 3 3 3 3 1 4 6 5 3 4 7 8 7 10 12 17 22 24 24 26 27 28 22 16 8 7 7 6 4 5 5 4 6 8 9 12 13 15 16 16 17 18 17 17 18 20 21 21
4 3 5 8 1 2 2 5 6 5 6 8 7 8 9 11 19 23 24 25 28 30 31 32 28 25 18 13 12 10 12 10 9 7 5 5 8 11 13 15 15 16 17 16 17 19 20 21 21
6 5 5 5 1 3 2 7 10 9 3 10 8 8 10 11 12 18 25 27 30 32 33 33 30 27 26 26 24 22 21 22 18 16 12 8 7 7 9 12 13 13 15 16 18 19 20 21 21
3 5 5 4 6 0 6 5 6 11 8 9 8 9 10 10 11 20 25 29 34 37 37 36 33 29 23 21 24 27 27 25 24 23 21 16 11 9 9 9 11 13 14 16 16 18 19 21 21
5 5 6 4 6 4 5 7 5 10 5 6 8 8 8 7 10 16 21 28 34 35 37 39 38 33 29 27 24 20 16 24 26 24 23 22 20 16 11 10 10 12 14 15 16 17 17 19 19
5 6 4 7 3 3 1 4 2 5 8 10 8 8 7 7 8 9 18 23 30 34 34 35 36 35 33 29 26 24 23 26 27 28 27 26 22 20 19 16 14 12 12 13 16 17 17 20 19
4 7 7 4 4 4 1 4 3 4 5 6 5 5 5 6 7 9 13 19 25 28 30 32 33 33 32 30 31 31 30 26 23 24 25 26 25 25 24 21 19 16 16 16 16 16 17 18 23
7 4 5 3 3 1 2 2 3 7 4 4 4 4 5 5 5 6 12 19 22 24 27 30 31 32 31 31 30 29 29 25 25 26 26 27 27 27 27 27 26 24 22 20 19 18 17 16 20
5 5 6 4 3 2 8 7 4 6 7 8 5 6 7 5 5 9 14 18 21 22 25 27 29 29 28 28 29 28 27 26 27 28 30 30 28 28 28 28 27 26 26 26 25 24 21 20 20
3 5 1 2 1 5 4 3 3 6 3 15 16 8 7 6 6 5 10 15 18 20 21 23 24 26 24 25 26 24 24 24 25 26 27 28 30 31 30 29 28 27 26 25 25 25 25 23 23
6 7 5 7 4 3 1 6 3 2 8 13 12 10 7 7 5 6 10 11 14 16 16 18 20 21 21 22 22 21 21 23 23 24 26 27 29 31 31 30 30 30 28 27 27 26 26 26 26
5 5 3 5 3 3 4 1 1 4 7 10 10 9 8 7 7 7 10 11 12 13 13 14 14 14 15 15 15 17 20 22 22 23 24 27 28 30 32 33 35 35 35 33 32 31 30 29 28
4 5 2 2 2 5 4 5 4 8 12 10 10 10 8 7 7 7 10 11 11 10 9 7 6 5 4 2 2 6 9 11 14 16 17 20 25 29 32 33 33 35 36 37 38 38 37 34 32
2 1 0 2 4 5 2 5 2 15 17 17 13 11 10 8 8 7 12 11 10 8 6 4 3 1 3 7 8 10 12 14 16 19 21 23 27 31 34 35 35 36 38 38 38 39 39 38 40
2 7 7 5 5 2 2 8 7 8 15 14 13 10 7 7 8 11 15 13 10 8 5 2 3 6 9 13 14 15 17 18 21 24 28 31 35 37 37 36 33 33 34 36 38 39 40 37 38
Wind_Direction
341 335 329 35 54 64 338 304 293 248 309 224 83 110 197 181 162 209 308 174 161 179 180 184 181 183 184 186 187 184 178 171 164 159 151 148 144 147 137 124 110 74 37 19 19 10 11 22 86
345 343 38 75 82 60 284 273 274 244 305 360 36 76 13 300 230 291 137 181 190 180 182 184 185 184 187 191 191 187 184 179 173 165 159 155 156 140 118 340 47 12 354 357 358 358 357 2 102
1 16 77 87 99 156 204 241 242 304 344 6 11 74 166 300 331 234 217 181 174 180 184 186 188 185 189 193 192 191 189 185 182 173 165 167 178 201 227 251 252 346 334 10 345 340 350 10 105
2 18 37 80 168 246 216 232 226 332 326 24 26 14 310 314 281 282 225 185 183 186 191 191 192 191 192 196 196 195 193 192 192 189 186 188 200 213 218 239 248 292 346 351 325 334 341 12 110
43 55 51 70 289 271 257 245 181 135 54 358 4 314 285 347 33 147 160 185 190 188 193 197 199 197 196 202 200 199 199 199 200 199 199 191 196 229 265 230 232 235 293 321 313 322 330 33 127
41 91 55 327 284 280 304 338 317 62 71 264 344 322 271 288 186 166 183 192 195 197 197 200 204 205 201 203 206 205 206 206 208 206 204 199 202 220 295 208 226 244 281 286 294 300 295 197 152
104 78 175 213 274 324 327 327 27 7 340 271 176 299 284 293 214 192 189 206 204 204 202 203 208 209 209 206 211 213 212 212 213 212 207 209 208 243 268 231 234 244 264 262 275 291 280 238 200
103 90 94 254 249 271 315 337 329 63 293 315 175 255 297 290 209 193 194 202 207 207 209 209 209 212 212 210 211 218 216 218 218 217 216 214 205 240 245 236 241 251 261 258 272 284 275 245 222
112 62 206 240 184 257 325 11 307 290 222 337 298 249 308 318 184 198 206 213 213 215 216 215 213 213 216 216 214 219 220 219 221 224 225 218 218 246 242 244 260 249 260 251 266 278 271 249 237
85 118 223 219 204 245 294 273 334 356 332 274 306 315 8 23 224 216 219 228 227 225 222 220 218 218 216 217 219 221 221 221 228 234 228 221 235 244 246 257 274 261 262 265 266 279 273 251 251
156 197 208 251 224 223 263 254 204 269 292 237 278 282 348 315 286 273 272 266 259 252 239 228 225 222 220 219 221 223 225 223 234 239 234 235 237 242 248 259 275 282 263 262 263 270 281 275 261
244 246 214 264 159 337 246 276 271 201 242 67 302 302 345 14 11 2 343 327 306 270 253 241 233 227 223 225 228 229 225 223 227 236 238 235 239 246 255 266 276 286 282 269 265 270 275 278 270
212 275 284 266 288 250 302 246 251 259 264 1 58 49 41 41 25 23 17 14 8 338 269 245 235 230 227 226 234 237 226 223 229 237 240 237 239 250 263 271 276 283 288 277 271 274 278 282 283
231 272 277 285 266 251 230 267 137 286 77 58 73 56 43 38 22 20 21 16 22 17 358 254 229 232 229 229 232 237 233 234 239 244 248 245 246 253 260 269 274 280 283 285 272 274 279 281 280
303 315 323 263 286 222 162 87 231 255 5 73 79 66 52 37 31 23 17 22 30 38 44 54 205 217 222 227 233 237 240 244 249 256 250 247 253 259 267 281 282 282 279 280 268 270 275 279 280
349 45 338 278 174 243 141 257 270 295 32 99 83 60 57 41 33 25 31 38 46 54 57 67 76 102 173 204 229 234 250 253 273 274 267 274 279 275 273 273 281 282 275 271 270 274 279 280 279
2 239 216 311 233 148 142 253 282 342 48 117 93 60 56 46 33 27 41 49 54 58 64 68 74 78 85 95 100 99 80 68 57 46 19 328 300 288 282 284 285 280 272 268 269 275 277 279 281
213 220 244 237 322 46 306 255 278 319 321 142 100 78 64 55 32 30 44 55 61 62 66 71 73 80 83 86 90 87 80 71 68 61 50 38 13 342 313 299 294 289 276 272 276 276 277 276 282
179 196 222 255 269 315 246 245 338 338 42 97 96 87 77 63 50 46 50 58 64 66 67 64 69 70 82 83 76 68 63 62 60 55 49 42 27 12 355 337 323 312 304 295 290 282 275 275 280
239 243 253 280 264 169 270 282 55 34 39 87 97 81 75 71 52 43 45 54 60 62 64 66 67 69 72 76 80 78 76 62 54 50 44 39 37 34 23 360 341 329 316 304 300 294 281 278 284
207 197 211 222 322 286 281 289 149 56 68 72 65 89 86 80 67 45 47 54 64 67 67 68 66 65 69 78 87 87 78 64 53 47 46 42 38 34 31 26 17 2 348 331 320 313 294 282 285
208 212 220 221 138 228 83 268 169 120 75 78 78 74 86 90 83 73 60 60 68 72 75 75 72 69 66 64 65 66 67 65 55 49 46 43 39 35 31 27 21 11 0 351 342 329 317 306 292
227 151 170 168 151 47 284 97 257 130 158 157 131 112 85 69 82 76 83 87 82 77 75 75 72 68 68 65 62 62 61 57 50 44 40 35 32 30 26 21 18 17 11 360 344 334 328 313 299
140 97 47 57 89 255 224 174 226 191 187 156 159 147 129 124 100 92 91 86 81 78 76 72 69 66 62 59 58 52 48 44 40 33 28 23 20 18 16 11 9 8 5 0 354 348 337 324 309
100 96 307 347 341 230 130 132 272 327 233 162 154 153 152 142 129 112 92 85 81 76 74 72 68 64 59 57 53 49 44 40 34 29 21 14 10 7 4 2 358 356 353 351 348 345 341 337 325
185 166 166 211 201 241 103 232 241 32 106 126 142 152 152 154 149 129 117 109 99 89 81 75 68 62 53 49 47 41 34 31 26 19 12 6 2 357 352 347 344 343 342 340 337 333 331 330 327
191 186 175 102 28 51 224 338 152 120 122 135 151 160 170 170 164 150 140 119 107 95 85 77 72 63 53 45 35 27 21 17 8 2 357 354 351 346 340 337 335 333 332 331 329 325 322 321 318
166 164 89 14 169 238 272 267 207 194 180 172 177 185 187 176 162 160 152 143 133 123 117 117 114 107 97 118 58 24 13 4 356 347 341 339 336 333 332 328 325 322 321 321 321 319 317 314 309
134 200 101 157 154 179 248 256 245 192 182 182 187 192 187 179 180 174 178 170 160 155 159 168 184 225 330 347 338 332 337 337 335 335 332 327 324 324 322 320 316 313 312 311 309 308 308 307 306
234 205 170 196 218 225 160 256 327 181 176 173 189 193 176 179 182 184 188 182 183 191 200 243 312 332 344 344 334 326 327 332 332 330 327 324 322 321 320 318 313 307 305 306 305 305 304 302 300